Location: Home
(51.5204°N, 2.5456°W)
Time: 15:02:47
(UTC+00:00)

STRAND 1 - Pass Details

Date: 08 December 2019
Orbit: 768 x 781 km, 98.5° (Epoch: 17 January)

Event Time Altitude Azimuth Distance (km) Brightness Sun altitude
Rises 06:47:11 0° 169° (S) 3,248 ? -10.9°
Reaches altitude 10° 06:49:30 10° 172° (S) 2,323 ? -10.6°
Maximum altitude 06:54:37 72° 256° (WSW) 819 ? -9.8°
Drops below altitude 10° 06:59:45 10° 342° (NNW) 2,331 ? -9.1°
Sets 07:02:05 0° 344° (NNW) 3,261 ? -8.8°
